CW5234 Buckingham PA US current weather conditions

sailwx.info

Wind from 290 at 3 knots

Air temperature 2.8° C
Dewpoint -4.4° C

Last reported at 2020-Jan-28 23:09 UTC.
Time now 2020-Jan-28 23:59 UTC

Location: N 40°19' W 075°02'.
View on Google Maps.

See reports from other nearby stations

  
Tides and Currents Weather Stations Pressure Air Temp Water Temp Dewpoint Dewpoint Depression Visibility Wind Speed Wind Dir Waves Ship Positions
date/time (UTC)wind fromknots sea level pressurealtimeterstation pressurevisibilityair tempwater tempwave heightnotes
2020-Jan-28 23:09 290 3 2.8
2020-Jan-28 22:59 283 3 2.8
2020-Jan-28 22:50 289 3 2.8
2020-Jan-28 22:41 285 6 2.8
2020-Jan-28 22:31 287 0 2.8
2020-Jan-28 22:22 270 1 2.8
2020-Jan-28 22:13 292 1 2.8
2020-Jan-28 22:03 271 0 2.8
2020-Jan-28 21:53 272 3 2.8
2020-Jan-28 21:44 272 2 3.3
2020-Jan-28 21:34 245 2 3.3
2020-Jan-28 21:24 281 2 3.3
2020-Jan-28 21:15 282 2 3.3
2020-Jan-28 21:06 273 2 3.3
2020-Jan-28 20:57 270 1 3.3
2020-Jan-28 20:48 246 0 3.3
2020-Jan-28 20:39 270 1 3.3
2020-Jan-28 20:29 289 2 3.3
2020-Jan-28 20:19 289 3 3.3
2020-Jan-28 20:09 270 2 3.3
2020-Jan-28 19:59 270 3 3.9
2020-Jan-28 19:50 244 3 3.9
2020-Jan-28 19:41 229 1 3.9
2020-Jan-28 19:31 294 2 3.9
2020-Jan-28 19:21 240 2 3.9
2020-Jan-28 19:11 270 1 3.9
2020-Jan-28 19:02 285 3 3.9
2020-Jan-28 18:53 235 4 3.9
2020-Jan-28 18:44 271 2 3.9
2020-Jan-28 18:34 292 0 3.3
2020-Jan-28 18:24 275 3 3.3
2020-Jan-28 18:14 284 5 3.3
2020-Jan-28 18:05 238 1 3.3
2020-Jan-28 17:55 238 2 3.3
2020-Jan-28 17:45 270 1 3.3
2020-Jan-28 17:36 263 2 3.3
2020-Jan-28 17:26 214 0 3.3
2020-Jan-28 17:17 244 1 3.3
2020-Jan-28 17:07 258 1 3.3
2020-Jan-28 16:58 253 2 3.3
2020-Jan-28 16:48 292 0 3.3
2020-Jan-28 16:38 260 1 3.3
2020-Jan-28 16:29 281 2 3.3
2020-Jan-28 16:19 292 1 3.3
2020-Jan-28 16:09 256 3 3.3
2020-Jan-28 16:00 230 3 3.3
2020-Jan-28 15:51 227 3 3.3
2020-Jan-28 15:41 275 2 3.3
2020-Jan-28 15:32 268 0 3.9
2020-Jan-28 15:22 270 3 3.9
2020-Jan-28 15:13 240 5 3.9
2020-Jan-28 15:04 282 4 3.9
2020-Jan-28 14:54 291 4 3.9
2020-Jan-28 14:44 252 2 3.9
2020-Jan-28 14:35 257 1 3.9
2020-Jan-28 14:25 274 2 3.3
2020-Jan-28 14:15 292 0 2.8
2020-Jan-28 14:05 255 2 2.8
2020-Jan-28 13:56 270 1 2.8
2020-Jan-28 13:46 244 2 2.8
2020-Jan-28 13:37 250 4 2.2
2020-Jan-28 13:27 225 0 2.2
2020-Jan-28 13:18 249 1 2.2
2020-Jan-28 13:08 280 1 1.7
2020-Jan-28 12:59 270 0 1.7
2020-Jan-28 12:49 242 2 1.7
2020-Jan-28 12:39 270 0 1.1
2020-Jan-28 12:30 239 1 1.1
2020-Jan-28 12:20 225 0 1.1
2020-Jan-28 12:11 247 0 1.1
2020-Jan-28 12:01 270 0.6
2020-Jan-28 11:52 270 0 0.6
2020-Jan-28 11:43 270 0.6
2020-Jan-28 11:33 270 0 -0.0
2020-Jan-28 11:23 247 0 -0.0
2020-Jan-28 11:13 225 -0.6
2020-Jan-28 11:04 225 -0.0
2020-Jan-28 10:54 225 -0.0
2020-Jan-28 10:44 225 -0.0
2020-Jan-28 10:34 247 0 -0.0
2020-Jan-28 10:25 247 -0.0
2020-Jan-28 10:16 202 -0.0
2020-Jan-28 10:06 225 0 -0.0
2020-Jan-28 09:56 225 0.6
2020-Jan-28 09:47 225 0.6
2020-Jan-28 09:38 225 1.1
2020-Jan-28 09:28 225 1.1
2020-Jan-28 09:18 225 1.1
2020-Jan-28 09:09 270 1.7
2020-Jan-28 09:00 247 1.7
2020-Jan-28 08:50 247 0 1.7
2020-Jan-28 08:40 259 1 1.7
2020-Jan-28 08:30 270 0 1.7
2020-Jan-28 08:21 270 1.7
2020-Jan-28 08:11 247 0 1.7
2020-Jan-28 08:02 247 1.7
2020-Jan-28 07:52 247 2.2
2020-Jan-28 07:42 268 0 2.2
2020-Jan-28 07:32 270 0 2.2
2020-Jan-28 07:22 270 0 2.2
2020-Jan-28 07:12 292 0 2.2
2020-Jan-28 07:03 278 0 2.2
2020-Jan-28 06:54 273 1 2.2
2020-Jan-28 06:44 270 1 2.2
2020-Jan-28 06:35 247 0 2.8
2020-Jan-28 06:25 259 1 2.8
2020-Jan-28 06:16 253 3 2.2
2020-Jan-28 06:06 290 0 2.2
2020-Jan-28 05:57 245 2 2.2
2020-Jan-28 05:47 240 1 2.2
2020-Jan-28 05:37 270 0 2.2
2020-Jan-28 05:27 247 1 2.2
2020-Jan-28 05:18 247 0 2.2
2020-Jan-28 05:09 225 0 2.2
2020-Jan-28 04:59 246 0 2.2
2020-Jan-28 04:50 247 0 2.2
2020-Jan-28 04:40 247 0 2.2
2020-Jan-28 04:31 270 0 2.2
2020-Jan-28 04:22 270 0 2.2
2020-Jan-28 04:12 270 1 2.8
2020-Jan-28 04:03 270 3 3.3
2020-Jan-28 03:53 270 1 3.9
2020-Jan-28 03:43 247 0 3.3
2020-Jan-28 03:33 270 3.9
2020-Jan-28 03:24 270 3.9
2020-Jan-28 03:15 247 3.9
2020-Jan-28 03:06 259 1 3.9
2020-Jan-28 02:56 270 1 3.9
2020-Jan-28 02:46 270 3.9
2020-Jan-28 02:37 247 1 3.9
2020-Jan-28 02:28 256 1 3.9
2020-Jan-28 02:18 252 2 3.9
2020-Jan-28 02:09 270 1 3.9
2020-Jan-28 01:59 225 0 3.9
2020-Jan-28 01:49 231 2 3.9
2020-Jan-28 01:39 270 3.9
2020-Jan-28 01:30 247 3.9
2020-Jan-28 01:21 270 1 3.3
2020-Jan-28 01:12 247 3.9
2020-Jan-28 01:03 247 3.3
2020-Jan-28 00:54 247 3.3
2020-Jan-28 00:45 270 3.3
2020-Jan-28 00:35 270 3.3
2020-Jan-28 00:25 270 0 3.3
2020-Jan-28 00:16 315 0 3.3
2020-Jan-28 00:06 315 0 3.3
2020-Jan-27 23:56 315 1 3.3
2020-Jan-27 23:46 270 3.3
2020-Jan-27 23:37 270 0 3.3
2020-Jan-27 23:27 270 0 3.3
2020-Jan-27 23:18 270 3.3
2020-Jan-27 23:08 262 0 3.9
2020-Jan-27 22:59 223 0 3.9
2020-Jan-27 22:49 270 4.4
2020-Jan-27 22:40 209 4.4
2020-Jan-27 22:31 236 1 5.0
2020-Jan-27 22:22 243 0 5.0
2020-Jan-27 22:12 270 1 5.0
2020-Jan-27 22:02 238 2 5.0
2020-Jan-27 21:53 270 2 5.0
2020-Jan-27 21:43 230 2 5.0
2020-Jan-27 21:34 258 2 5.6
2020-Jan-27 21:24 267 2 5.6
2020-Jan-27 21:14 247 4 5.6
2020-Jan-27 21:04 205 2 5.6
2020-Jan-27 20:54 231 4 5.6
2020-Jan-27 20:44 245 2 5.6
2020-Jan-27 20:34 245 1 5.6
2020-Jan-27 20:24 275 6.1
2020-Jan-27 20:14 257 4 6.1
2020-Jan-27 20:05 253 4 6.1
2020-Jan-27 19:55 245 3 6.1
2020-Jan-27 19:46 241 2 6.1
2020-Jan-27 19:37 262 2 6.1
2020-Jan-27 19:27 259 2 6.1
2020-Jan-27 19:17 247 6.1
2020-Jan-27 19:08 257 1 6.1
2020-Jan-27 18:58 281 1 6.1
2020-Jan-27 18:48 271 1 6.7
2020-Jan-27 18:38 288 2 5.6
2020-Jan-27 18:28 213 1 5.6
2020-Jan-27 18:18 216 1 5.6
2020-Jan-27 18:08 241 3 5.6
2020-Jan-27 17:58 243 2 5.0
2020-Jan-27 17:48 218 0 5.0
2020-Jan-27 17:38 222 3 5.0
2020-Jan-27 17:29 216 2 5.0
2020-Jan-27 17:19 197 0 5.0
2020-Jan-27 17:09 212 0 5.0
2020-Jan-27 16:59 245 2 5.0
2020-Jan-27 16:49 248 2 5.0
2020-Jan-27 16:39 191 3 5.0
2020-Jan-27 16:30 215 4 5.0
2020-Jan-27 16:20 192 2 5.0
2020-Jan-27 16:10 249 0 4.4
2020-Jan-27 16:01 242 3 4.4
2020-Jan-27 15:51 211 1 4.4
2020-Jan-27 15:42 122 1 4.4
2020-Jan-27 15:32 238 4.4
2020-Jan-27 15:23 241 2 4.4
2020-Jan-27 15:13 247 1 3.9
2020-Jan-27 15:04 214 1 3.9
2020-Jan-27 14:54 146 0 3.3
2020-Jan-27 14:45 191 1 3.3
2020-Jan-27 14:35 175 3 3.3
2020-Jan-27 14:25 180 1 2.8
2020-Jan-27 14:16 148 0 2.8
2020-Jan-27 14:06 140 2 2.8
2020-Jan-27 13:57 157 2.2
2020-Jan-27 13:47 225 2.2
2020-Jan-27 13:38 173 0 2.2
2020-Jan-27 13:28 119 0 2.2
2020-Jan-27 13:19 112 0 1.7
2020-Jan-27 13:09 108 1 1.7
2020-Jan-27 13:00 096 1.7
2020-Jan-27 12:51 090 1.7
2020-Jan-27 12:42 107 0 1.7
2020-Jan-27 12:32 119 0 1.7
2020-Jan-27 12:22 130 2 1.7
2020-Jan-27 12:12 139 0 1.7
2020-Jan-27 12:03 117 0 1.7
2020-Jan-27 11:53 112 1.7
2020-Jan-27 11:43 135 1 1.7
2020-Jan-27 11:33 106 1.7
2020-Jan-27 11:23 135 0 1.7
2020-Jan-27 11:14 090 1.7
2020-Jan-27 11:05 112 0 1.1
2020-Jan-27 10:55 090 1.1
2020-Jan-27 10:46 097 0 1.1
2020-Jan-27 10:36 172 1.1
2020-Jan-27 10:26 045 1.1
2020-Jan-27 10:16 112 1.1
2020-Jan-27 10:06 132 2 1.1
2020-Jan-27 09:56 003 1.1
2020-Jan-27 09:47 022 1.1
2020-Jan-27 09:38 192 1.1
2020-Jan-27 09:28 112 1.1
2020-Jan-27 09:18 276 1.1
2020-Jan-27 09:08 090 1.1
2020-Jan-27 08:59 143 1.1
2020-Jan-27 08:49 206 1 1.1
2020-Jan-27 08:39 157 1.1
2020-Jan-27 08:30 090 0 1.1
2020-Jan-27 08:21 247 0.6
2020-Jan-27 08:12 204 0.6
2020-Jan-27 08:03 225 0.6
2020-Jan-27 07:53 292 0.6
2020-Jan-27 07:43 180 0.6
2020-Jan-27 07:33 112 -0.0
2020-Jan-27 07:24 232 0 -0.0
2020-Jan-27 07:14 128 -0.6
2020-Jan-27 07:04 225 -0.6
2020-Jan-27 06:54 180 -0.0
2020-Jan-27 06:45 337 -0.0
2020-Jan-27 06:36 337 0.6
2020-Jan-27 06:27 177 0.6
2020-Jan-27 06:17 128 0 -0.0
2020-Jan-27 06:08 337 -0.0
2020-Jan-27 05:59 349 -0.0
2020-Jan-27 05:50 346 0.6
2020-Jan-27 05:40 090 0.6
2020-Jan-27 05:30 112 0.6
2020-Jan-27 05:21 360 0.6
2020-Jan-27 05:11 360 0.6
2020-Jan-27 05:02 225 0.6
2020-Jan-27 04:53 135 0.6
2020-Jan-27 04:43 180 0.6
2020-Jan-27 04:33 315 -0.0
2020-Jan-27 04:24 315 0.6
2020-Jan-27 04:14 333 1 0.6
2020-Jan-27 04:04 337 0.6
2020-Jan-27 03:54 337 0.6
2020-Jan-27 03:45 337 0 1.1
2020-Jan-27 03:35 337 1.1
2020-Jan-27 03:25 337 1.1
2020-Jan-27 03:16 270 1.1
2020-Jan-27 03:06 270 1.1
2020-Jan-27 02:56 270 1.1
2020-Jan-27 02:46 270 1.7
2020-Jan-27 02:36 270 1.7
2020-Jan-27 02:27 270 1.7
2020-Jan-27 02:18 270 2.2
2020-Jan-27 02:08 270 2.8
2020-Jan-27 01:58 270 2.8
2020-Jan-27 01:49 270 2.8
2020-Jan-27 01:39 270 2.8
2020-Jan-27 01:29 270 0 2.8
2020-Jan-27 01:19 270 3.3
2020-Jan-27 01:10 270 3.3
2020-Jan-27 01:01 270 3.3
2020-Jan-27 00:51 225 3.3
2020-Jan-27 00:42 225 3.3
2020-Jan-27 00:32 247 0 3.3
2020-Jan-27 00:22 225 3.3
2020-Jan-27 00:13 225 3.9
2020-Jan-27 00:03 270 3.9
2020-Jan-26 23:53 270 0 3.9
2020-Jan-26 23:44 251 0 3.9
2020-Jan-26 23:34 247 4.4
2020-Jan-26 23:24 270 4.4
2020-Jan-26 23:15 250 1 5.0
2020-Jan-26 23:05 250 0 5.0